Content
SEND FEEDBACK

Daily
Averages
Monthly
Summary
United States of America

ROCK HILL, NEW YORK


Home > North America > United States > New York
Elevation: 384 meters     Latitude: 41 35N     Longitude: 074 37W

WEATHER
 
SELECT A DAY
Number of Records: 443,980;   Date Range: 1/1/95 - 9/16/14
 
SHARE

PRINT THIS DATA

[ ← Previous Day ]
WEATHER ALMANAC - 19 APRIL, 2014
[ Next Day → ]
[ °F ]   °C
Weather ElementAverageHighLow
Temperature7.3 °C14 °C (3:35 pm)0 °C (2:55 am)
Dewpoint-3.2 °C2 °C (8:15 am)-8 °C (6:35 pm)
Humidity52.8 %93 % (6:55 am)25 % (3:35 pm)
Barometer1025.4 hPa1028.8 hPa (10:55 pm)1023 hPa (1:35 am)
Wind Speed13.8 km/h31.5 km/h (2:35 pm)
Wind Gust42.6 km/h (3:55 pm)
Weather ElementAverage
Visibility16.1 km
Wind DirectionSSW (213.8 °)

Weather ElementTotal
Precipitation---
Heating Degree Days11.3 (Base 18.3)
Averaged from 71 records on 19 April, 2014
WEATHER CONDITIONS BREAKOUT
WIND DIRECTION BREAKOUT
WEATHER BY HOUR - 19 APRIL, 2014
[ °F ]   °C
Local TimeTemperatureDewpointHumidityBarometerVisibilityWind DirectionWind SpeedGust SpeedPrecipitationEventsConditions
12:35 AM2 °C-2 °C75 %1023.4 hPa16.1 kmCalmClear
12:55 AM2 °C-3 °C70 %1023.7 hPa16.1 kmCalmClear
1:15 AM2 °C-2 °C75 %1023.4 hPa16.1 kmCalmClear
1:35 AM2 °C-3 °C70 %1023 hPa16.1 kmCalmClear
1:55 AM1 °C-3 °C75 %1023.4 hPa16.1 kmCalmClear
2:15 AM2 °C-2 °C75 %1023 hPa16.1 kmCalmClear
2:35 AM1 °C-2 °C81 %1023 hPa16.1 kmCalmClear
2:55 AM0 °C-2 °C87 %1023 hPa16.1 kmCalmClear
3:15 AM1 °C-2 °C81 %1023 hPa16.1 kmCalmClear
3:35 AM1 °C-2 °C81 %1023 hPa16.1 kmWest (270°)7.4 km/hClear
3:55 AM1 °C-2 °C81 %1023 hPa16.1 kmWest (260°)11.1 km/hClear
4:15 AM2 °C-2 °C75 %1023 hPa16.1 kmWSW (240°)7.4 km/hClear
4:35 AM2 °C-2 °C75 %1023 hPa16.1 kmWest (260°)9.3 km/hClear
4:55 AM1 °C-1 °C87 %1023.4 hPa16.1 kmWest (270°)11.1 km/hClear
5:15 AM1 °C-1 °C87 %1023 hPa16.1 kmWest (280°)9.3 km/hClear
5:35 AM1 °C-1 °C87 %1023.4 hPa16.1 kmWest (280°)7.4 km/hClear
5:55 AM1 °C-2 °C81 %1023.4 hPa16.1 kmWest (270°)5.6 km/hClear
6:15 AM1 °C-1 °C87 %1023.7 hPa16.1 kmWest (280°)7.4 km/hClear
6:35 AM1 °C-1 °C87 %1024 hPa16.1 kmWNW (290°)9.3 km/hClear
6:55 AM2 °C1 °C93 %1024.4 hPa16.1 kmWNW (300°)7.4 km/hClear
7:15 AM3 °C1 °C87 %1024.7 hPa16.1 kmWNW (300°)11.1 km/hClear
7:35 AM3 °C1 °C87 %1025.1 hPa16.1 kmWNW (290°)11.1 km/hClear
7:55 AM4 °C1 °C81 %1025.1 hPa16.1 kmWNW (290°)9.3 km/hClear
8:15 AM5 °C2 °C81 %1025.4 hPa16.1 kmWNW (300°)9.3 km/hClear
8:35 AM6 °C1 °C70 %1025.4 hPa16.1 kmWNW (290°)14.8 km/hClear
8:55 AM7 °C1 °C66 %1025.4 hPa16.1 kmWNW (300°)14.8 km/hClear
9:15 AM7 °C0 °C61 %1025.7 hPa16.1 kmWNW (300°)20.4 km/hClear
9:35 AM8 °C-1 °C53 %1026.1 hPa16.1 kmWNW (290°)20.4 km/h27.8 km/hClear
9:55 AM9 °C-1 °C50 %1026.1 hPa16.1 kmNorthClear
10:15 AM9 °C-1 °C50 %1026.1 hPa16.1 kmNNW (340°)14.8 km/hClear
10:35 AM10 °C-2 °C43 %1026.1 hPa16.1 kmNorthClear
10:55 AM11 °C-2 °C41 %1026.1 hPa16.1 kmNorth (350°)27.8 km/h35.2 km/hClear
11:15 AM12 °C-3 °C35 %1026.1 hPa16.1 kmNorthClear
11:35 AM12 °C-3 °C35 %1026.1 hPa16.1 kmNorthClear
11:55 AM12 °C-3 °C35 %1025.7 hPa16.1 kmNorthClear
12:15 PM12 °C-3 °C35 %1025.7 hPa16.1 kmNorth (350°)25.9 km/h35.2 km/hClear
12:35 PM13 °C-3 °C33 %1025.7 hPa16.1 kmNNW (330°)24.1 km/h35.2 km/hClear
12:55 PM13 °C-4 °C31 %1025.7 hPa16.1 kmNorth (360°)29.6 km/h38.9 km/hClear
1:15 PM13 °C-4 °C31 %1025.4 hPa16.1 kmNorth (10°)16.7 km/hClear
1:35 PM13 °C-3 °C33 %1025.4 hPa16.1 kmNW (310°)22.2 km/h35.2 km/hClear
1:55 PM13 °C-6 °C26 %1025.1 hPa16.1 kmWNW (300°)29.6 km/h40.7 km/hClear
2:15 PM13 °C-4 °C31 %1025.1 hPa16.1 kmNW (320°)29.6 km/h40.7 km/hClear
2:35 PM13 °C-5 °C29 %1025.4 hPa16.1 kmNorth (350°)31.5 km/h40.7 km/hClear
2:55 PM13 °C-6 °C26 %1025.4 hPa16.1 kmNorth (350°)27.8 km/h37 km/hClear
3:15 PM13 °C-5 °C29 %1025.4 hPa16.1 kmNNW (330°)27.8 km/h35.2 km/hClear
3:35 PM14 °C-6 °C25 %1025.4 hPa16.1 kmNNW (340°)31.5 km/h38.9 km/hClear
3:55 PM13 °C-6 °C26 %1025.7 hPa16.1 kmNNW (340°)27.8 km/h42.6 km/hClear
4:15 PM13 °C-6 °C26 %1025.4 hPa16.1 kmNNW (340°)24.1 km/h33.3 km/hClear
4:35 PM13 °C-6 °C26 %1025.4 hPa16.1 kmNNW (330°)22.2 km/h27.8 km/hClear
4:55 PM13 °C-7 °C25 %1025.4 hPa16.1 kmNNW (330°)24.1 km/h35.2 km/hClear
5:15 PM13 °C-6 °C26 %1025.4 hPa16.1 kmNW (320°)24.1 km/h31.5 km/hClear
5:35 PM13 °C-7 °C25 %1025.4 hPa16.1 kmNNW (330°)20.4 km/hClear
5:55 PM12 °C-6 °C28 %1025.7 hPa16.1 kmNW (320°)13 km/h27.8 km/hClear
6:15 PM12 °C-7 °C26 %1026.1 hPa16.1 kmNorth (350°)16.7 km/hClear
6:35 PM11 °C-8 °C26 %1026.1 hPa16.1 kmNNW (340°)24.1 km/hClear
6:55 PM11 °C-8 °C26 %1026.4 hPa16.1 kmNNW (330°)16.7 km/hClear
7:15 PM10 °C-7 °C30 %1026.8 hPa16.1 kmNNW (330°)13 km/hClear
7:35 PM9 °C-7 °C32 %1026.8 hPa16.1 kmNNW (340°)11.1 km/hClear
7:55 PM8 °C-6 °C37 %1026.8 hPa16.1 kmNNW (340°)13 km/hClear
8:15 PM8 °C-6 °C37 %1027.1 hPa16.1 kmNorth (350°)11.1 km/hClear
8:35 PM8 °C-6 °C37 %1027.1 hPa16.1 kmNorthClear
8:55 PM7 °C-4 °C46 %1027.4 hPa16.1 kmNorthClear
9:15 PM7 °C-3 °C49 %1027.4 hPa16.1 kmNorth (350°)18.5 km/hClear
9:35 PM7 °C-3 °C49 %1027.8 hPa16.1 kmNorthClear
9:55 PM7 °C-4 °C46 %1028.1 hPa16.1 kmCalmClear
10:15 PM7 °C-3 °C49 %1028.4 hPa16.1 kmNNE (30°)5.6 km/hClear
10:35 PM6 °C-4 °C49 %1028.4 hPa16.1 kmCalmClear
10:55 PM7 °C-3 °C49 %1028.8 hPa16.1 kmNNE (20°)5.6 km/hClear
11:15 PM6 °C-3 °C53 %1028.8 hPa16.1 kmNNW (340°)7.4 km/hClear
11:35 PM5 °C-4 °C53 %1028.4 hPa16.1 kmNorth (350°)11.1 km/hClear
11:55 PM4 °C-4 °C56 %1028.4 hPa16.1 kmNorthClear
Hourly data recorded from KMSV, located 0 kilometers away from Rock Hill, New York







STORIES FROM OUR PARTNERS